Date String (YYYY-MM-DD hh:mm:ss) UTC,Instrument flags,absolute air pressure of the measurement (hPa),sample flow rate (lpm),inlet stack bypass flow (lpm),air temperature of the measurement (°C),ambient temperature measured by the external sensor (°C),aerosol sample conditioner tube jacket temperature (°C),OPC LED temperature (°C),internal box temperature (°C),relative humidity of the measurement (%),span deviation,mass concentration of particles derived from Lorenz-Mie calculation of OPC scattering (μg/m³),mass concentration of particles derived from Lorenz-Mie calculation of OPC scattering (μg/m³),mass concentration of particles derived from Lorenz-Mie calculation of OPC scattering (μg/m³)
DateTimeUTC,F1_M11,P_M11,Q1_M11,Q2_M11,T1_M11,T2_M11,T3_M11,T4_M11,T5_M11,U1_M11,ZSPAN_M11,X0_M11,X2_M11,X1_M11
2023-08-02 04:00:00,SystemResetWarning,0835.3,5.00,000.00,030.7,025.9,000.0,038.9,031.0,33.6,0000.0,0008.77,0004.05,0003.39
2023-08-02 04:01:00,SystemResetWarning,0835.5,4.99,000.00,030.6,026.2,000.0,038.9,031.0,33.9,0000.0,0008.77,0004.04,0003.40
2023-08-02 04:02:00,SystemResetWarning,0835.3,5.00,000.00,030.6,026.6,000.0,038.9,031.1,33.8,0000.0,0008.68,0004.00,0003.38
2023-08-02 04:03:00,SystemResetWarning,0835.3,5.01,000.00,030.5,026.9,000.0,038.9,031.2,33.8,0000.0,0008.75,0004.01,0003.36
2023-08-02 04:04:00,SystemResetWarning,0835.4,5.01,000.00,030.5,027.2,000.0,038.9,031.2,33.8,0000.0,0008.72,0004.00,0003.35
2023-08-02 04:05:00,SystemResetWarning,0835.4,5.00,000.00,030.5,027.5,000.0,038.9,031.3,33.4,0000.0,0008.52,0003.98,0003.34
2023-08-02 04:06:00,SystemResetWarning,0835.5,4.99,000.00,030.5,027.7,000.0,038.9,031.3,33.2,0000.0,0008.11,0003.97,0003.35
2023-08-02 04:07:00,SystemResetWarning,0835.5,5.00,000.00,030.5,027.8,000.0,038.9,031.3,33.2,0000.0,0008.22,0003.98,0003.35
2023-08-02 04:08:00,SystemResetWarning,0835.5,4.99,000.00,030.4,028.0,000.0,038.9,031.4,33.2,0000.0,0008.83,0004.00,0003.35
2023-08-02 04:09:00,SystemResetWarning,0835.4,5.00,000.00,030.4,028.1,000.0,038.8,031.4,33.4,0000.0,0009.28,0003.98,0003.33
2023-08-02 04:10:00,SystemResetWarning,0835.4,5.01,000.00,030.4,028.2,000.0,038.8,031.4,33.6,0000.0,0009.21,0003.97,0003.31
2023-08-02 04:11:00,SystemResetWarning,0835.3,5.00,000.00,030.4,028.3,000.0,038.8,031.4,33.8,0000.0,0008.94,0003.96,0003.29
2023-08-02 04:12:00,SystemResetWarning,0835.3,5.00,000.00,030.4,028.4,000.0,038.8,031.5,33.9,0000.0,0008.87,0003.93,0003.26
2023-08-02 04:13:00,SystemResetWarning,0835.3,5.00,000.00,030.4,028.4,000.0,038.8,031.5,34.4,0000.0,0008.95,0003.91,0003.24
2023-08-02 04:14:00,SystemResetWarning,0835.2,4.99,000.00,030.4,028.4,000.0,038.8,031.5,34.4,0000.0,0009.41,0003.90,0003.24
2023-08-02 04:15:00,SystemResetWarning,0835.2,5.00,000.00,030.4,028.5,000.0,038.8,031.5,34.2,0000.0,0009.38,0003.88,0003.22
2023-08-02 04:16:00,SystemResetWarning,0835.2,4.99,000.00,030.4,028.5,000.0,038.8,031.5,34.0,0000.0,0009.00,0003.84,0003.19
2023-08-02 04:17:00,SystemResetWarning,0835.2,4.99,000.00,030.4,028.2,000.0,038.8,031.5,32.4,0000.0,0008.88,0003.78,0003.15
2023-08-02 04:18:00,SystemResetWarning,0835.3,5.00,000.00,030.4,026.6,000.0,038.7,031.3,32.4,0000.0,0008.53,0003.75,0003.13
2023-08-02 04:19:00,SystemResetWarning,0835.3,5.01,000.00,030.3,025.7,000.0,038.5,031.2,32.7,0000.0,0007.86,0003.69,0003.11
2023-08-02 04:20:00,SystemResetWarning,0835.3,5.01,000.00,030.2,025.7,000.0,038.5,030.9,32.4,0000.0,0007.22,0003.65,0003.10
2023-08-02 04:21:00,SystemResetWarning,0835.3,5.00,000.00,030.1,026.0,000.0,038.5,030.8,33.1,0000.0,0007.34,0003.64,0003.09
2023-08-02 04:22:00,SystemResetWarning,0835.2,5.00,000.00,030.0,026.3,000.0,038.5,030.9,32.9,0000.0,0007.39,0003.63,0003.09
2023-08-02 04:23:00,SystemResetWarning,0835.3,4.97,000.00,030.0,026.7,000.0,038.5,031.0,34.7,0000.0,0007.37,0003.62,0003.09
2023-08-02 04:24:00,SystemResetWarning,0835.3,5.02,000.00,030.1,027.0,000.0,038.5,031.1,35.7,0000.0,0007.20,0003.61,0003.10
2023-08-02 04:25:00,SystemResetWarning,0835.3,5.01,000.00,030.3,027.3,000.0,038.5,031.3,35.8,0000.0,0006.53,0003.58,0003.10
2023-08-02 04:26:00,SystemResetWarning,0835.3,4.99,000.00,030.7,027.5,000.0,038.5,031.4,35.5,0000.0,0006.88,0003.60,0003.12
2023-08-02 04:27:00,SystemResetWarning,0835.3,5.02,000.00,031.1,027.7,000.0,038.5,031.6,35.0,0000.0,0007.00,0003.62,0003.13
2023-08-02 04:28:00,SystemResetWarning,0835.2,4.98,000.00,031.4,027.9,000.0,038.6,031.7,34.4,0000.0,0007.24,0003.69,0003.16
2023-08-02 04:29:00,SystemResetWarning,0835.3,4.99,000.00,031.6,028.0,000.0,038.7,031.7,33.9,0000.0,0007.44,0003.75,0003.18
2023-08-02 04:30:00,SystemResetWarning,0835.3,5.01,000.00,031.7,028.1,000.0,038.8,031.7,33.3,0000.0,0007.51,0003.75,0003.20
2023-08-02 04:31:00,SystemResetWarning,0835.3,5.01,000.00,031.8,028.2,000.0,039.0,031.7,32.2,0000.0,0007.71,0003.80,0003.22
2023-08-02 04:32:00,SystemResetWarning,0835.2,5.00,000.00,031.9,028.3,000.0,039.1,031.7,32.4,0000.0,0007.95,0003.83,0003.23
2023-08-02 04:33:00,SystemResetWarning,0835.2,5.00,000.00,031.9,028.4,000.0,039.2,031.7,32.4,0000.0,0007.86,0003.83,0003.25
2023-08-02 04:34:00,SystemResetWarning,0835.2,5.00,000.00,031.9,028.4,000.0,039.3,031.8,31.9,0000.0,0007.83,0003.85,0003.26
2023-08-02 04:35:00,SystemResetWarning,0835.2,5.00,000.00,031.9,028.5,000.0,039.4,031.8,31.9,0000.0,0007.80,0003.85,0003.26
2023-08-02 04:36:00,SystemResetWarning,0835.2,5.00,000.00,031.9,028.5,000.0,039.5,031.8,32.0,0000.0,0007.67,0003.85,0003.27
2023-08-02 04:37:00,SystemResetWarning,0835.2,5.00,000.00,031.9,028.5,000.0,039.5,031.8,32.1,0000.0,0007.35,0003.81,0003.25
2023-08-02 04:38:00,SystemResetWarning,0835.2,5.00,000.00,031.9,028.6,000.0,039.6,031.8,32.0,0000.0,0007.17,0003.76,0003.23
2023-08-02 04:39:00,SystemResetWarning,0835.2,5.00,000.00,031.9,028.6,000.0,039.6,031.9,32.2,0000.0,0007.17,0003.74,0003.21
2023-08-02 04:40:00,SystemResetWarning,0835.2,5.00,000.00,031.8,028.6,000.0,039.7,031.9,32.1,0000.0,0006.84,0003.67,0003.19
2023-08-02 04:41:00,SystemResetWarning,0835.2,4.99,000.00,031.8,028.4,000.0,039.7,031.9,32.3,0000.0,0006.81,0003.67,0003.17
2023-08-02 04:42:00,SystemResetWarning,0835.2,4.99,000.00,031.8,026.7,000.0,039.5,031.7,32.4,0000.0,0006.54,0003.63,0003.15
2023-08-02 04:43:00,SystemResetWarning,0835.1,5.01,000.00,031.7,025.8,000.0,039.4,031.6,32.8,0000.0,0005.61,0003.54,0003.14
2023-08-02 04:44:00,SystemResetWarning,0835.1,5.02,000.00,031.6,025.8,000.0,039.4,031.3,33.3,0000.0,0005.60,0003.55,0003.15
2023-08-02 04:45:00,SystemResetWarning,0835.1,4.99,000.00,031.4,026.1,000.0,039.5,031.2,33.8,0000.0,0005.67,0003.56,0003.16
2023-08-02 04:46:00,SystemResetWarning,0835.1,5.00,000.00,031.3,026.4,000.0,039.5,031.3,34.1,0000.0,0005.88,0003.61,0003.18
2023-08-02 04:47:00,SystemResetWarning,0835.0,5.00,000.00,031.2,026.8,000.0,039.5,031.3,34.2,0000.0,0006.24,0003.68,0003.19
2023-08-02 04:48:00,SystemResetWarning,0835.0,5.00,000.00,031.2,027.1,000.0,039.4,031.4,34.3,0000.0,0006.57,0003.76,0003.22
2023-08-02 04:49:00,SystemResetWarning,0835.0,5.00,000.00,031.1,027.4,000.0,039.4,031.4,34.5,0000.0,0006.85,0003.80,0003.25
2023-08-02 04:50:00,SystemResetWarning,0835.0,5.00,000.00,031.1,027.6,000.0,039.4,031.5,34.7,0000.0,0006.98,0003.81,0003.26
2023-08-02 04:51:00,SystemResetWarning,0835.1,4.99,000.00,031.1,027.8,000.0,039.4,031.5,34.8,0000.0,0007.20,0003.85,0003.27
2023-08-02 04:52:00,SystemResetWarning,0835.0,5.01,000.00,031.1,027.9,000.0,039.4,031.6,35.0,0000.0,0007.39,0003.91,0003.28
2023-08-02 04:53:00,SystemResetWarning,0835.1,4.99,000.00,031.1,028.1,000.0,039.3,031.6,34.9,0000.0,0007.56,0003.96,0003.30
2023-08-02 04:54:00,SystemResetWarning,0835.1,4.99,000.00,031.2,028.2,000.0,039.3,031.7,34.9,0000.0,0007.55,0003.96,0003.29
2023-08-02 04:55:00,SystemResetWarning,0835.0,5.02,000.00,031.2,028.3,000.0,039.3,031.7,34.7,0000.0,0007.55,0003.94,0003.26
2023-08-02 04:56:00,SystemResetWarning,0835.0,4.99,000.00,031.2,028.4,000.0,039.3,031.7,34.8,0000.0,0007.47,0003.89,0003.23
2023-08-02 04:57:00,SystemResetWarning,0835.0,5.00,000.00,031.2,028.5,000.0,039.4,031.7,35.1,0000.0,0007.46,0003.85,0003.19
2023-08-02 04:58:00,SystemResetWarning,0835.1,4.99,000.00,031.4,028.5,000.0,039.4,031.9,35.0,0000.0,0007.28,0003.77,0003.16
2023-08-02 04:59:00,SystemResetWarning,0835.1,5.03,000.00,031.6,028.6,000.0,039.4,032.0,34.7,0000.0,0007.09,0003.72,0003.15
